Flag for Austria Weather for the Past 2 Weeks in Tulln an der Donau, Lower Austria, Austria

Now
43 °F

Passing clouds.


Feels Like: 39 °F
Forecast: 42 / 54 °F
Wind: 7 mph from Southwest

Location: Tulln Airport

Current Time: Feb 8, 2016 at 10:35:32 PM

Latest Report: Feb 8, 2016 at 9:50 PM


Visibility: 12 mi

Pressure: 29.71 "Hg

Humidity: 87%

Dew point: 39 °F

Location of Tulln an der DonauLocation

Historic Weather in Tulln an der Donau — Graph

°F

Tulln an der Donau Temperature Yesterday

Maximum temperature yesterday: 48 °F (at 1:50 PM)
Minimum temperature yesterday: 32 °F (at 7:50 AM)
Average temperature yesterday: 40 °F

High & Low Weather Summary for the Past Weeks

 TemperatureHumidityPressure
High59 °F (Jan 28, 11:50 AM)100% (Jan 27, 4:50 AM)30.51 "Hg (Jan 27, 4:50 AM)
Low30 °F (Jan 27, 4:50 AM)48% (Jan 28, 1:50 PM)29.65 "Hg (Feb 8, 6:50 PM)
Average45 °F79%30.15 "Hg
* Reported Jan 24 8:50 PM — Feb 8 8:50 PM, Tulln an der Donau, Weather by CustomWeather, © 2016

Note: Actual official high and low records may vary slightly from our data, if they occured in-between our weather recording intervals... More about our weather records

Advertising

Tulln an der Donau Weather History for the Previous 24 Hours

 ConditionsComfort  
Time TempWeatherWind HumidityBarometerVisibility
8:50 PM
Mon, Feb 8
43 °FPassing clouds.3 mph87%29.68 "Hg16 mi
7:50 PM48 °FPartly cloudy.6 mph76%29.65 "Hg16 mi
6:50 PM50 °FPassing clouds.2 mph71%29.65 "Hg16 mi
5:50 PM48 °FPassing clouds.3 mph76%29.68 "Hg16 mi
3:50 PM52 °FBroken clouds.6 mph67%29.74 "Hg22 mi
2:50 PM52 °FBroken clouds.8 mph67%29.74 "Hg31 mi
1:50 PM52 °FPartly sunny.9 mph67%29.77 "Hg31 mi
1:20 PM52 °FPartly sunny.9 mph67%29.80 "Hg31 mi
12:50 PM52 °FScattered clouds.7 mph62%29.80 "Hg31 mi
11:50 AM52 °FPassing clouds.7 mph58%29.86 "Hg28 mi
10:50 AM48 °FBroken clouds.3 mph66%29.89 "Hg28 mi
8:50 AM46 °FBroken clouds.7 mph66%29.92 "Hg28 mi
7:50 AM45 °FPartly sunny.6 mph76%29.92 "Hg25 mi
6:50 AM45 °FPassing clouds.6 mph76%29.92 "Hg19 mi
5:50 AM45 °FPassing clouds.12 mph81%29.95 "Hg16 mi
4:50 AM46 °FPassing clouds.10 mph71%29.95 "Hg16 mi
Weather by CustomWeather, © 2016

See weather overviewHow to use our weather pages